Flag for U.S.A. Weather past 2 weeks in Orlando, Florida, U.S.A.

Now
68 °F

Passing clouds.


Feels Like: 68 °F
Forecast: 63 / 76 °F
Wind: 7 mph from Southwest

Location: Orlando Executive Airport


UV Index: 0 (Low)

Visibility: 10 mi


Pressure: 29.90 "Hg

Humidity: 96%

Dew point: 67 °F

Location of OrlandoLocation

Historic Weather in Orlando

°F

Orlando temperature yesterday

Maximum temperature yesterday: 81 °F (at 2:53 PM)
Minimum temperature yesterday: 69 °F (at 6:01 PM)
Average temperature yesterday: 73 °F

Past Weeks' High & Low Weather Summary

 TemperatureHumidityPressure
High89 °F (Apr 7, 3:53 PM)94% (Apr 15, 3:53 PM)30.31 "Hg (Apr 15, 3:53 PM)
Low52 °F (Apr 16, 6:53 AM)31% (Apr 14, 6:53 PM)29.73 "Hg (Apr 8, 3:01 PM)
Average72 °F70%30.05 "Hg
* Reported Apr 4 4:53 AM — Apr 19 4:53 AM, Orlando, Weather by CustomWeather, © 2014

Note: Actual official high and low records may vary slightly from our data, if they occured in-between our weather recording intervals... More about our weather records

Advertising

Historic Weather Conditions — Data for Previous 24 hours

 ConditionsComfort  
Time TempWeatherWind HumidityBarometerVisibility
4:53 AM
Apr 19
69 °FClear.6 mph93%29.88 "Hg10 mi
3:53 AM69 °FPassing clouds.6 mph93%29.90 "Hg10 mi
2:53 AM69 °FPassing clouds.6 mph90%29.91 "Hg10 mi
1:53 AM69 °FMostly cloudy.6 mph90%29.94 "Hg10 mi
12:53 AM69 °FMostly cloudy.6 mph90%29.94 "Hg10 mi
11:53 PM
Apr 18
69 °FPassing clouds.6 mph90%29.95 "Hg10 mi
10:53 PM69 °FMostly cloudy.6 mph90%29.96 "Hg10 mi
9:53 PM70 °FMostly cloudy.3 mph87%29.96 "Hg10 mi
8:53 PM70 °FMostly cloudy.5 mph87%29.94 "Hg10 mi
7:53 PM70 °FBroken clouds.No wind84%29.95 "Hg10 mi
6:53 PM70 °FBroken clouds.5 mph84%29.97 "Hg10 mi
6:01 PM69 °FThundershowers. Broken clouds.5 mph90%29.97 "Hg10 mi
4:53 PM81 °FSunny.12 mph58%29.97 "Hg10 mi
3:53 PM81 °FPassing clouds.14 mph65%29.98 "Hg10 mi
2:53 PM81 °FScattered clouds.13 mph67%30.00 "Hg10 mi
1:53 PM79 °FCloudy.14 mph74%30.01 "Hg10 mi
12:53 PM79 °FPartly sunny.9 mph74%30.03 "Hg10 mi
11:53 AM77 °FMostly cloudy.14 mph79%30.05 "Hg10 mi
10:53 AM76 °FMostly cloudy.16 mph82%30.06 "Hg10 mi
9:53 AM73 °FLight rain. Fog.13 mph90%30.07 "Hg4 mi
8:53 AM72 °FFog.10 mph91%30.08 "Hg4 mi
7:53 AM71 °FMostly cloudy.8 mph90%30.09 "Hg10 mi
6:53 AM71 °FMostly cloudy.14 mph84%30.08 "Hg8 mi
Weather by CustomWeather, © 2014

See weather overview